St. George, UT

6:13 PM MST on December 05, 2019 (GMT -0700)
Saint George Municipal

Weather History for KSGU - October, 2019

Change the Weather History Date:

Wednesday, October 23, 2019

  Actual Average Record
Temperature  
Mean Temperature 61 °F -  
Max Temperature 77 °F 77 °F 90 °F (1959)
Min Temperature 45 °F 44 °F 30 °F (1961)
Degree Days  
Heating Degree Days 4    
Growing Degree Days 11 (Base 50)    
Moisture  
Dew Point 21 °F    
Average Humidity 21    
Maximum Humidity 36    
Minimum Humidity 12    
Precipitation  
Precipitation 0.00 in - - ()
Sea Level Pressure  
Sea Level Pressure 30.04 in    
Wind  
Wind Speed 4 mph (East)    
Max Wind Speed 17 mph    
Max Gust Speed 22 mph    
Visibility 8 miles    
Events      
Averages and records for this station are not official NWS values.
T = Trace of Precipitation, MM = Missing Value Source: NWS Daily Summary

Daily Weather History Graph

Daily Weather History Graph

Search for Another Location

Airport or City:

Astronomy

Oct. 23, 2019 Rise Set
Actual Time 7:49 AM MDT 6:47 PM MDT
Civil Twilight 7:22 AM MDT 7:13 PM MDT
Nautical Twilight 6:52 AM MDT 7:43 PM MDT
Astronomical Twilight 6:22 AM MDT 8:13 PM MDT
Moon 2:22 AM MDT (10/23) 4:30 PM MDT (10/23)
Length of Visible Light 11h 50m
Length of Day
10h 57m
Waning Crescent, 26% of the Moon is Illuminated
Oct 23
Waning Crescent
Oct 27
New
Nov 4
First Quarter
Nov 12
Full
Nov 19
Last Quarter

Hourly Weather History & Observations

Time (MDT) Temp. Windchill Dew Point Humidity Pressure Visibility Wind Dir Wind Speed Gust Speed Precip Events Conditions
12:56 AM 57.0 °F - 21.9 °F 26% 30.08 in 10.0 mi Calm Calm - N/A   Clear
1:56 AM 55.0 °F - 21.9 °F 28% 30.07 in 10.0 mi SSE 3.5 mph - N/A   Clear
2:56 AM 54.0 °F - 21.0 °F 28% 30.07 in 10.0 mi East 6.9 mph - N/A   Clear
3:56 AM 52.0 °F - 21.0 °F 30% 30.07 in 10.0 mi South 5.8 mph - N/A   Clear
4:56 AM 48.9 °F - 21.0 °F 33% 30.06 in 10.0 mi SSW 3.5 mph - N/A   Clear
5:56 AM 48.9 °F - 21.0 °F 33% 30.06 in 10.0 mi SSE 3.5 mph - N/A   Clear
6:56 AM 48.9 °F - 21.0 °F 33% 30.07 in 10.0 mi Calm Calm - N/A   Clear
7:56 AM 45.0 °F 41.2 °F 19.0 °F 36% 30.09 in 10.0 mi SSE 6.9 mph - N/A   Clear
8:56 AM 51.1 °F - 21.0 °F 31% 30.10 in 10.0 mi Calm Calm - N/A   Clear
9:56 AM 53.1 °F - 23.0 °F 31% 30.11 in 10.0 mi Calm Calm - N/A   Clear
10:56 AM 57.9 °F - 23.0 °F 26% 30.12 in 10.0 mi Calm Calm - N/A   Clear
11:56 AM 63.0 °F - 24.1 °F 23% 30.09 in 10.0 mi SSW 4.6 mph - N/A   Clear
12:56 PM 68.0 °F - 25.0 °F 20% 30.06 in 10.0 mi SSW 4.6 mph - N/A   Clear
1:56 PM 71.1 °F - 25.0 °F 18% 30.04 in 10.0 mi Calm Calm - N/A   Clear
2:56 PM 73.9 °F - 26.1 °F 17% 30.00 in 10.0 mi SW 3.5 mph - N/A   Clear
3:56 PM 75.9 °F - 23.0 °F 14% 29.98 in 10.0 mi South 4.6 mph - N/A   Clear
4:56 PM 77.0 °F - 21.0 °F 12% 29.97 in 10.0 mi Variable 3.5 mph - N/A   Clear
5:56 PM 75.9 °F - 19.9 °F 12% 29.96 in 10.0 mi Calm Calm - N/A   Clear
6:56 PM 72.0 °F - 19.9 °F 14% 29.97 in 3.0 mi ENE 8.1 mph - N/A   Haze
7:04 PM 71.6 °F - 19.4 °F 14% 30.02 in 2.5 mi ENE 6.9 mph - N/A   Haze
7:12 PM 71.6 °F - 19.4 °F 14% 30.02 in 10.0 mi NE 9.2 mph - N/A   Clear
7:50 PM 71.6 °F - 19.4 °F 14% 30.03 in 1.8 mi ENE 13.8 mph - N/A   Haze
7:53 PM 71.6 °F - 19.4 °F 14% 30.02 in 0.8 mi ENE 11.5 mph - N/A   Haze
7:56 PM 70.0 °F - 19.0 °F 14% 29.98 in 0.8 mi ENE 17.3 mph 21.9 mph N/A   Haze
8:02 PM 69.8 °F - 19.4 °F 15% 30.02 in 1.5 mi ENE 11.5 mph 21.9 mph N/A   Haze
8:10 PM 69.8 °F - 19.4 °F 15% 30.02 in 10.0 mi ENE 13.8 mph - N/A   Clear
8:56 PM 68.0 °F - 19.9 °F 16% 29.99 in 8.0 mi North 10.4 mph - N/A   Clear
9:56 PM 68.0 °F - 21.0 °F 17% 30.02 in 10.0 mi North 6.9 mph 17.3 mph N/A   Clear
10:56 PM 64.0 °F - 19.9 °F 18% 30.05 in 10.0 mi North 9.2 mph - N/A   Clear
11:56 PM 62.1 °F - 18.0 °F 18% 30.08 in 10.0 mi NE 9.2 mph - N/A   Clear